Location: Nag� el Ma?a??a
(24.0667°N, 32.8833°E)
Time: 08:31:11
(UTC+00:00)

Lacrosse 5 - Visible Passes

Search period start: 29 January 2022 00:00
Search period end: 08 February 2022 00:00
Orbit: 714 x 724 km, 57.0° (Epoch: 28 August)

Date Brightness Start Highest point End Pass type
(mag) Time Alt. Az. Time Alt. Az. Time Alt. Az.
05 Feb 4.1 17:08:49 10° N 17:09:22 12° N 17:09:22 12° N visible
06 Feb 4.1 17:57:05 10° NNW 17:58:14 17° NNW 17:58:14 17° NNW visible
07 Feb 2.8 17:04:22 10° NNW 17:08:04 31° NNE 17:08:04 31° NNE visible
